Location: Colonia Mina de C?rbuni
(46.1667°N, 22.7167°E)
Time: 21:30:37
(UTC+00:00)

Tiros 1 - Pass Details

Date: 23 April 2024
Orbit: 624 x 657 km, 48.4° (Epoch: 20 May)

Event Time Altitude Azimuth Distance (km) Brightness Sun altitude
Rises 22:20:30 0° 250° (WSW) 2,935 - -30.9°
Reaches altitude 10° 22:22:50 10° 250° (WSW) 2,022 - -30.9°
Maximum altitude 22:27:30 88° 157° (SSE) 638 - -30.9°
Drops below altitude 10° 22:32:08 10° 73° (ENE) 2,007 - -30.9°
Exits shadow 22:32:23 - 73° (ENE) 2,108 10.0 -30.9°
Sets 22:34:26 0° 73° (ENE) 2,912 10.7 -30.9°
